When you browse on this site, cookies collect data to enhance your experience and personalize the content and advertising you see.
Visit our Privacy Policy to learn more. By continuing to use the site, you agree to this use of cookies and data.
  • In Latvia
  • List of Countries
  • For 7 days
  • Water Temperature
  • Weather Map
  • Weather Widgets
  • user-avatar
    Login

    Hourly Weather Klagenfurt

    Today, 19 August, Monday

    Time Temperature Precipitation Wind Pressure Humidity
    00:00 +16°C° 0 mm 1 mps 690 mmHg 94%
    01:00 +15°C° 0 mm 1 mps 690 mmHg 94%
    02:00 +15°C° 0 mm 1 mps 690 mmHg 94%
    03:00 +15°C° 0 mm 1 mps 690 mmHg 95%
    04:00 +15°C° 0 mm 1 mps 690 mmHg 95%
    05:00 +16°C° 0 mm 1 mps 690 mmHg 91%
    06:00 +18°C° 0 mm 1 mps 691 mmHg 88%
    07:00 +17°C° 0 mm 0 mps 691 mmHg 84%
    08:00 +22°C° 0 mm 1 mps 692 mmHg 75%
    09:00 +24°C° 0 mm 1 mps 692 mmHg 66%
    10:00 +26°C° 0 mm 1 mps 693 mmHg 56%
    11:00 +27°C° 0 mm 1 mps 693 mmHg 54%
    12:00 +28°C° 0 mm 1 mps 693 mmHg 52%
    13:00 +28°C° 0 mm 1 mps 693 mmHg 50%
    14:00 +28°C° 0.2 mm 1 mps 693 mmHg 52%
    15:00 +27°C° 0.2 mm 1 mps 693 mmHg 54%
    16:00 +27°C° 0.2 mm 2 mps 693 mmHg 56%
    17:00 +25°C° 0.2 mm 1 mps 693 mmHg 64%
    18:00 +23°C° 0.2 mm 1 mps 692 mmHg 73%
    19:00 +21°C° 0.2 mm 1 mps 692 mmHg 81%
    20:00 +20°C° 0.1 mm 1 mps 692 mmHg 82%
    21:00 +19°C° 0.1 mm 1 mps 693 mmHg 82%
    22:00 +16°C° 0.1 mm 0 mps 693 mmHg 83%
    23:00 +16°C° 0 mm 0 mps 693 mmHg 85%

    Tomorrow, 20 August, Tuesday

    Time Temperature Precipitation Wind Pressure Humidity
    00:00 +16°C° 0 mm 0 mps 693 mmHg 86%
    01:00 +15°C° 0 mm 0 mps 693 mmHg 88%
    02:00 +15°C° 0 mm 0 mps 693 mmHg 89%
    03:00 +15°C° 0 mm 0 mps 693 mmHg 91%
    04:00 +15°C° 0 mm 0 mps 693 mmHg 92%
    05:00 +16°C° 0 mm 0 mps 693 mmHg 89%
    06:00 +17°C° 0 mm 0 mps 693 mmHg 87%
    07:00 +18°C° 0 mm 0 mps 693 mmHg 84%
    08:00 +20°C° 0 mm 0 mps 694 mmHg 77%
    09:00 +23°C° 0 mm 1 mps 694 mmHg 69%
    10:00 +25°C° 0 mm 1 mps 694 mmHg 61%
    11:00 +26°C° 0 mm 1 mps 694 mmHg 57%
    12:00 +27°C° 0 mm 1 mps 694 mmHg 54%
    13:00 +28°C° 0 mm 1 mps 694 mmHg 50%
    14:00 +28°C° 0 mm 1 mps 694 mmHg 50%
    15:00 +28°C° 0 mm 1 mps 693 mmHg 51%
    16:00 +28°C° 0 mm 1 mps 693 mmHg 51%
    17:00 +26°C° 0 mm 1 mps 693 mmHg 61%
    18:00 +24°C° 0 mm 1 mps 692 mmHg 70%
    19:00 +21°C° 0 mm 1 mps 692 mmHg 80%
    20:00 +21°C° 0 mm 1 mps 692 mmHg 81%
    21:00 +20°C° 0 mm 1 mps 693 mmHg 81%
    22:00 +19°C° 0 mm 1 mps 693 mmHg 82%
    23:00 +19°C° 0 mm 1 mps 693 mmHg 83%

    Day after tomorrow, 21 August, Wednesday

    Time Temperature Precipitation Wind Pressure Humidity
    00:00 +19°C° 0 mm 1 mps 693 mmHg 83%
    01:00 +18°C° 0 mm 1 mps 693 mmHg 84%
    02:00 +18°C° 0 mm 1 mps 693 mmHg 85%
    03:00 +18°C° 0 mm 1 mps 692 mmHg 85%
    04:00 +16°C° 0 mm 1 mps 692 mmHg 86%
    05:00 +18°C° 0.1 mm 1 mps 693 mmHg 87%
    06:00 +19°C° 0.1 mm 1 mps 693 mmHg 88%
    07:00 +19°C° 0.1 mm 1 mps 693 mmHg 88%
    08:00 +20°C° 0.5 mm 1 mps 694 mmHg 86%
    09:00 +21°C° 0.5 mm 1 mps 694 mmHg 83%
    10:00 +23°C° 0.5 mm 1 mps 694 mmHg 81%
    11:00 +23°C° 0.9 mm 1 mps 694 mmHg 80%
    12:00 +24°C° 0.9 mm 1 mps 694 mmHg 79%
    13:00 +24°C° 0.9 mm 1 mps 694 mmHg 79%
    14:00 +24°C° 1.2 mm 1 mps 694 mmHg 79%
    15:00 +24°C° 1.2 mm 1 mps 694 mmHg 78%
    16:00 +24°C° 1.2 mm 1 mps 694 mmHg 78%
    17:00 +23°C° 0.8 mm 1 mps 694 mmHg 83%
    18:00 +21°C° 0.8 mm 1 mps 693 mmHg 87%
    19:00 +20°C° 0.8 mm 1 mps 693 mmHg 92%
    20:00 +19°C° 0.6 mm 1 mps 693 mmHg 93%
    21:00 +18°C° 0.6 mm 1 mps 693 mmHg 94%
    22:00 +16°C° 0.6 mm 1 mps 693 mmHg 95%
    23:00 +15°C° 0.4 mm 0 mps 693 mmHg 95%

    22 August, Thursday

    Time Temperature Precipitation Wind Pressure Humidity
    00:00 +15°C° 0.4 mm 0 mps 693 mmHg 96%
    01:00 +15°C° 0.4 mm 0 mps 693 mmHg 96%
    02:00 +15°C° 0.2 mm 0 mps 693 mmHg 97%
    03:00 +14°C° 0.2 mm 0 mps 693 mmHg 97%
    04:00 +14°C° 0.2 mm 0 mps 693 mmHg 97%
    05:00 +15°C° 0.2 mm 0 mps 693 mmHg 97%
    06:00 +16°C° 0.2 mm 1 mps 693 mmHg 97%
    07:00 +18°C° 0.2 mm 1 mps 694 mmHg 96%
    08:00 +19°C° 0 mm 1 mps 694 mmHg 92%
    09:00 +20°C° 0 mm 1 mps 694 mmHg 87%
    10:00 +21°C° 0 mm 1 mps 694 mmHg 82%
    11:00 +22°C° 0 mm 1 mps 694 mmHg 77%
    12:00 +23°C° 0 mm 1 mps 694 mmHg 72%
    13:00 +25°C° 0 mm 1 mps 694 mmHg 67%
    14:00 +24°C° 0.2 mm 1 mps 694 mmHg 69%
    15:00 +24°C° 0.2 mm 1 mps 694 mmHg 71%
    16:00 +24°C° 0.2 mm 1 mps 694 mmHg 73%
    17:00 +23°C° 0.5 mm 1 mps 694 mmHg 79%
    18:00 +21°C° 0.5 mm 1 mps 694 mmHg 84%
    19:00 +20°C° 0.5 mm 1 mps 694 mmHg 90%
    20:00 +19°C° 0.9 mm 1 mps 694 mmHg 92%
    21:00 +18°C° 0.9 mm 1 mps 694 mmHg 94%
    22:00 +18°C° 0.9 mm 1 mps 694 mmHg 96%
    23:00 +16°C° 0.8 mm 1 mps 694 mmHg 96%

    23 August, Friday

    Time Temperature Precipitation Wind Pressure Humidity
    00:00 +16°C° 0.8 mm 1 mps 694 mmHg 97%
    01:00 +16°C° 0.8 mm 1 mps 694 mmHg 97%
    02:00 +16°C° 0.2 mm 1 mps 694 mmHg 97%
    03:00 +16°C° 0.2 mm 1 mps 694 mmHg 97%
    04:00 +15°C° 0.2 mm 1 mps 694 mmHg 97%
    05:00 +16°C° 0.2 mm 1 mps 694 mmHg 97%
    06:00 +16°C° 0.2 mm 1 mps 694 mmHg 96%
    07:00 +18°C° 0.2 mm 1 mps 694 mmHg 96%
    08:00 +19°C° 0 mm 1 mps 694 mmHg 90%
    09:00 +20°C° 0 mm 1 mps 695 mmHg 84%
    10:00 +22°C° 0 mm 1 mps 695 mmHg 78%
    11:00 +23°C° 0.2 mm 1 mps 695 mmHg 73%
    12:00 +24°C° 0.2 mm 2 mps 695 mmHg 68%
    13:00 +25°C° 0.2 mm 2 mps 695 mmHg 62%
    14:00 +25°C° 0.9 mm 2 mps 695 mmHg 65%
    15:00 +25°C° 0.9 mm 2 mps 694 mmHg 68%
    16:00 +24°C° 0.9 mm 1 mps 694 mmHg 70%
    17:00 +23°C° 0.4 mm 1 mps 693 mmHg 77%
    18:00 +21°C° 0.4 mm 1 mps 693 mmHg 83%
    19:00 +19°C° 0.4 mm 1 mps 692 mmHg 90%
    20:00 +18°C° 0.3 mm 1 mps 693 mmHg 91%
    21:00 +18°C° 0.3 mm 1 mps 693 mmHg 92%
    22:00 +16°C° 0.3 mm 1 mps 693 mmHg 93%
    23:00 +16°C° 0.1 mm 1 mps 693 mmHg 93%

    24 August, Saturday

    Time Temperature Precipitation Wind Pressure Humidity
    00:00 +16°C° 0.1 mm 1 mps 693 mmHg 93%
    01:00 +16°C° 0.1 mm 1 mps 692 mmHg 93%
    02:00 +16°C° 0 mm 1 mps 692 mmHg 93%
    03:00 +15°C° 0 mm 1 mps 692 mmHg 93%
    04:00 +15°C° 0 mm 1 mps 691 mmHg 93%
    05:00 +16°C° 0 mm 1 mps 692 mmHg 92%
    06:00 +18°C° 0 mm 1 mps 692 mmHg 91%
    07:00 +16°C° 0 mm 0 mps 692 mmHg 91%
    08:00 +20°C° 0 mm 1 mps 692 mmHg 84%
    09:00 +22°C° 0 mm 1 mps 693 mmHg 76%
    10:00 +24°C° 0 mm 1 mps 693 mmHg 69%
    11:00 +24°C° 0.2 mm 1 mps 693 mmHg 67%
    12:00 +25°C° 0.2 mm 1 mps 693 mmHg 64%
    13:00 +26°C° 0.2 mm 1 mps 693 mmHg 61%
    14:00 +26°C° 0.5 mm 1 mps 693 mmHg 62%
    15:00 +26°C° 0.5 mm 1 mps 692 mmHg 64%
    16:00 +26°C° 0.5 mm 1 mps 692 mmHg 66%
    17:00 +24°C° 1.1 mm 1 mps 692 mmHg 74%
    18:00 +22°C° 1.1 mm 1 mps 691 mmHg 82%
    19:00 +18°C° 1.1 mm 0 mps 691 mmHg 91%
    20:00 +17°C° 0.9 mm 0 mps 691 mmHg 91%
    21:00 +19°C° 0.9 mm 1 mps 691 mmHg 91%
    22:00 +18°C° 0.9 mm 1 mps 691 mmHg 92%
    23:00 +16°C° 0.2 mm 0 mps 691 mmHg 92%
    Show more